Flag for U.S.A. Weather past 2 weeks in Memphis, Tennessee, U.S.A.

Now
74 °F

Passing clouds.


Feels Like: 75 °F
Forecast: 68 / 87 °F
Wind: 5 mph from Northeast

Location: Memphis International Airport

Current Time: Aug 2, 2014 at 2:46:10 AM

Latest Report: Aug 2, 2014 at 1:54 AM


Visibility: 10 mi

Pressure: 30.02 "Hg

Humidity: 74%

Dew point: 65 °F

Location of MemphisLocation

Historic Weather in Memphis — Graph

°F

Memphis temperature yesterday

Maximum temperature yesterday: 85 °F (at 1:54 PM)
Minimum temperature yesterday: 72 °F (at 1:54 AM)
Average temperature yesterday: 78 °F

Past Weeks' High & Low Weather Summary

 TemperatureHumidityPressure
High93 °F (Jul 26, 3:54 PM)94% (Jul 18, 11:04 AM)30.14 "Hg (Jul 18, 11:04 AM)
Low63 °F (Jul 30, 6:54 AM)40% (Jul 24, 12:54 PM)29.92 "Hg (Jul 27, 4:54 PM)
Average77 °F68%30.03 "Hg
* Reported Jul 18 12:54 AM — Aug 2 12:54 AM, Memphis, Weather by CustomWeather, © 2014

Note: Actual official high and low records may vary slightly from our data, if they occured in-between our weather recording intervals... More about our weather records

Advertising

Memphis weather history for previous 24 hours

 ConditionsComfort  
Time TempWeatherWind HumidityBarometerVisibility
12:54 AM
Aug 2
77 °FPassing clouds.6 mph64%30.02 "Hg10 mi
11:54 PM
Aug 1
79 °FPassing clouds.3 mph58%30.02 "Hg10 mi
10:54 PM78 °FPassing clouds.5 mph58%30.02 "Hg10 mi
9:54 PM79 °FPassing clouds.5 mph56%30.01 "Hg10 mi
8:54 PM80 °FPassing clouds.6 mph51%30.00 "Hg10 mi
7:54 PM82 °FPartly sunny.7 mph49%29.99 "Hg10 mi
6:54 PM83 °FScattered clouds.6 mph48%29.99 "Hg10 mi
5:54 PM84 °FBroken clouds.6 mph46%30.00 "Hg10 mi
4:54 PM84 °FBroken clouds.8 mph45%30.00 "Hg10 mi
3:54 PM85 °FBroken clouds.8 mph48%30.01 "Hg10 mi
2:54 PM85 °FBroken clouds.7 mph45%30.02 "Hg10 mi
1:54 PM85 °FBroken clouds.10 mph50%30.03 "Hg10 mi
12:54 PM83 °FOvercast.7 mph51%30.04 "Hg10 mi
11:54 AM83 °FPartly sunny.6 mph51%30.04 "Hg10 mi
10:54 AM81 °FScattered clouds.6 mph56%30.06 "Hg10 mi
9:54 AM77 °FPartly sunny.6 mph66%30.06 "Hg10 mi
8:54 AM75 °FMore clouds than sun.6 mph71%30.07 "Hg10 mi
7:54 AM72 °FOvercast.7 mph81%30.07 "Hg10 mi
6:54 AM72 °FMostly cloudy.6 mph84%30.05 "Hg9 mi
5:54 AM72 °FLight rain. Passing clouds.3 mph81%30.04 "Hg9 mi
4:54 AM72 °FPassing clouds.6 mph81%30.04 "Hg10 mi
3:54 AM72 °FOvercast.6 mph81%30.03 "Hg10 mi
2:54 AM72 °FPassing clouds.6 mph81%30.03 "Hg10 mi
Weather by CustomWeather, © 2014

See weather overviewHow to use our weather pages